Home   Weather   Feldkirch   Past weeks

Flag for Austria Past Weather in Feldkirch, Vorarlberg, Austria — Yesterday and Last 2 Weeks

Now
68 °F

Mild.


Feels Like: 68 °F
Forecast: 49 / 74 °F
Wind: 1 mph from North

Location: Feldkirch

Current Time: Sep 27, 2016 at 3:56:36 PM

Latest Report: Sep 27, 2016 at 3:00 PM


Visibility: N/A

Pressure: 30.25 "Hg

Humidity: 59%

Dew Point: 53 °F

Location of FeldkirchLocation

Past Weather in Feldkirch — Graph

°F

Feldkirch Temperature Yesterday

Maximum temperature yesterday: 69 °F (at 4:00 PM)
Minimum temperature yesterday: 49 °F (at 5:00 AM)
Average temperature yesterday: 59 °F

High & Low Weather Summary for the Past Weeks

 TemperatureHumidityPressure
High82 °F (Sep 12, 3:00 PM)100% (Sep 20, 3:00 AM)30.33 "Hg (Sep 20, 3:00 AM)
Low47 °F (Sep 25, 7:00 AM)41% (Sep 15, 7:00 AM)29.77 "Hg (Sep 15, 7:00 AM)
Average61 °F80%30.05 "Hg
* Reported Sep 12 2:00 PM — Sep 27 2:00 PM, Feldkirch, Weather by CustomWeather, © 2016

Note: Actual official high and low records may vary slightly from our data, if they occured in-between our weather recording intervals... More about our weather records

Advertising

Feldkirch Weather History for the Previous 24 Hours

Scroll right to see more
 ConditionsComfort  
Time TempWeatherWind HumidityBarometerVisibility
2:00 PM
Tue, Sep 27
68 °FMild.No wind59%30.26 "HgN/A
1:00 PM64 °FMild.1 mph72%30.27 "HgN/A
12:00 PM60 °FCool.2 mph83%30.29 "HgN/A
11:00 AM58 °FLight rain. Overcast.1 mph86%30.29 "Hg9 mi
10:00 AM56 °FSprinkles. Cloudy.2 mph89%30.29 "HgN/A
9:00 AM58 °FCool.1 mph94%30.25 "HgN/A
8:00 AM58 °FCool.1 mph92%30.23 "HgN/A
7:00 AM58 °FCool.No wind94%30.22 "HgN/A
6:00 AM57 °FCool.1 mph95%30.21 "HgN/A
5:00 AM57 °FCool.No wind95%30.20 "HgN/A
4:00 AM57 °FCool.1 mph95%30.19 "HgN/A
3:00 AM57 °FCool.No wind95%30.17 "HgN/A
2:00 AM57 °FCool.No wind93%30.17 "HgN/A
1:00 AM56 °FCool.No wind93%30.16 "HgN/A
12:00 AM56 °FCool.1 mph93%30.16 "HgN/A
11:00 PM
Mon, Sep 26
58 °FCool.No wind92%30.15 "HgN/A
10:00 PM59 °FCool.No wind88%30.14 "HgN/A
9:00 PM61 °FCool.1 mph86%30.12 "HgN/A
7:00 PM66 °FMild.No wind75%30.08 "HgN/A
4:00 PM69 °FMild.2 mph68%30.06 "HgN/A
3:00 PM69 °FMild.2 mph64%30.07 "HgN/A
Weather by CustomWeather, © 2016

See weather overviewHow to use our weather pages